sat.trackr.live / text

‹ back to catalog

STARLINK-2644

NORAD 48442 · 2021-040Q

PAYLOAD ACTIVE UNKNOWN

§ Identity

Operator
Country
US
Launch date
2021-05-09
Launch site
AFETR
Launch vehicle
Mass (kg)
RCS (m²)

Purposes: comms

External: N2YO · Heavens-Above · Gunter

§ Orbital elements

Epoch: 2026-09-20T03:52:37.123392Z

Period
91.29 min
Inclination
53.1548°
Eccentricity
0.0007951
Mean motion
15.77433106 rev/d
Perigee alt
332.4 km
Apogee alt
343.1 km
Semi-major
6,715.9 km
B*
6.1371e-4
RAAN
329.7321°
Arg perigee
6.4561°
Mean anomaly
353.6562°
Rev number
29,680

§ Raw data

STARLINK-26441 48442U 21040Q   26263.16154078  .00104434  00000+0  61371-3 0  99962 48442  53.1548 329.7321 0007951   6.4561 353.6562 15.77433106296803

JSON: /api/v1/satellites/48442 · /tle

For live sub-satellite position, see the globe view (requires WebGL).

§ Visibility from observer

Set your observer location to see the next 7 days of passes ≥ 10°. The values pass through the URL so the page stays shareable.

No JS? Fill the form by hand. The geolocation button needs JavaScript.